Time,TemperatureF,DewpointF,PressureIn,WindDirection,WindDirectionDegrees,WindSpeedMPH,WindSpeedGustMPH,Humidity,HourlyPrecipIn,Conditions,Clouds,dailyrainin,SoftwareType,DateUTC
2013-05-31 00:05:00,77.8,74.0,29.84,ENE,78,0.0,2.0,88,0.00,,,0.00,Wunderground v.1.15,2013-05-31 05:05:00,
2013-05-31 00:14:00,77.7,74.2,29.84,NNW,338,1.0,1.0,89,0.00,,,0.00,Wunderground v.1.15,2013-05-31 05:14:00,
2013-05-31 00:25:00,77.7,74.2,29.84,SE,139,0.0,1.0,89,0.00,,,0.00,Wunderground v.1.15,2013-05-31 05:25:00,
2013-05-31 00:34:00,77.6,74.1,29.83,East,92,0.0,1.0,89,0.00,,,0.00,Wunderground v.1.15,2013-05-31 05:34:00,
2013-05-31 00:39:00,77.7,74.5,29.84,NW,319,0.0,0.0,90,0.00,,,0.00,Wunderground v.1.15,2013-05-31 05:39:00,
2013-05-31 00:50:00,77.6,74.4,29.84,ESE,110,1.0,1.0,90,0.00,,,0.00,Wunderground v.1.15,2013-05-31 05:50:00,
2013-05-31 00:59:00,77.5,74.3,29.83,ESE,120,0.0,0.0,90,0.00,,,0.00,Wunderground v.1.15,2013-05-31 05:59:00,
2013-05-31 01:10:00,77.4,74.2,29.83,SE,127,1.0,1.0,90,0.00,,,0.00,Wunderground v.1.15,2013-05-31 06:10:00,
2013-05-31 01:19:00,77.3,74.1,29.83,East,82,1.0,1.0,90,0.00,,,0.00,Wunderground v.1.15,2013-05-31 06:19:00,
2013-05-31 01:29:00,77.2,74.0,29.83,East,90,1.0,3.0,90,0.00,,,0.00,Wunderground v.1.15,2013-05-31 06:29:00,
2013-05-31 01:35:00,77.2,74.0,29.83,NE,37,1.0,3.0,90,0.00,,,0.00,Wunderground v.1.15,2013-05-31 06:35:00,
2013-05-31 01:44:00,77.1,73.9,29.83,SSW,212,1.0,1.0,90,0.00,,,0.00,Wunderground v.1.15,2013-05-31 06:44:00,
2013-05-31 01:55:00,77.1,73.9,29.83,ENE,68,1.0,1.0,90,0.00,,,0.00,Wunderground v.1.15,2013-05-31 06:55:00,
2013-05-31 02:00:00,77.1,73.9,29.83,ESE,105,1.0,1.0,90,0.00,,,0.00,Wunderground v.1.15,2013-05-31 07:00:00,
2013-05-31 02:09:00,77.0,73.8,29.83,ESE,108,1.0,3.0,90,0.00,,,0.00,Wunderground v.1.15,2013-05-31 07:09:00,
2013-05-31 02:19:00,77.0,74.2,29.83,East,86,1.0,1.0,91,0.00,,,0.00,Wunderground v.1.15,2013-05-31 07:19:00,
2013-05-31 02:25:00,76.9,74.1,29.83,East,100,1.0,1.0,91,0.00,,,0.00,Wunderground v.1.15,2013-05-31 07:25:00,
2013-05-31 02:34:00,76.9,74.1,29.83,ESE,107,1.0,1.0,91,0.00,,,0.00,Wunderground v.1.15,2013-05-31 07:34:00,
2013-05-31 02:45:00,76.8,74.0,29.83,NNE,16,1.0,2.0,91,0.00,,,0.00,Wunderground v.1.15,2013-05-31 07:45:00,
2013-05-31 02:55:00,76.8,74.0,29.83,ESE,113,1.0,1.0,91,0.00,,,0.00,Wunderground v.1.15,2013-05-31 07:55:00,
2013-05-31 03:04:00,76.8,74.0,29.83,SE,134,1.0,1.0,91,0.00,,,0.00,Wunderground v.1.15,2013-05-31 08:04:00,
2013-05-31 03:10:00,76.8,74.0,29.83,WNW,293,1.0,1.0,91,0.00,,,0.00,Wunderground v.1.15,2013-05-31 08:10:00,
2013-05-31 03:19:00,76.7,74.2,29.83,East,87,0.0,1.0,92,0.00,,,0.00,Wunderground v.1.15,2013-05-31 08:19:00,
2013-05-31 03:29:00,76.6,74.1,29.83,NW,319,0.0,0.0,92,0.00,,,0.00,Wunderground v.1.15,2013-05-31 08:29:00,
2013-05-31 03:35:00,76.6,74.1,29.83,WSW,237,0.0,1.0,92,0.00,,,0.00,Wunderground v.1.15,2013-05-31 08:35:00,
2013-05-31 03:44:00,76.5,74.0,29.83,ESE,108,0.0,1.0,92,0.00,,,0.00,Wunderground v.1.15,2013-05-31 08:44:00,
2013-05-31 03:55:00,76.5,74.0,29.83,East,98,0.0,1.0,92,0.00,,,0.00,Wunderground v.1.15,2013-05-31 08:55:00,
2013-05-31 04:05:00,76.4,73.9,29.83,WSW,243,0.0,0.0,92,0.00,,,0.00,Wunderground v.1.15,2013-05-31 09:05:00,
2013-05-31 04:14:00,76.4,73.9,29.83,NE,55,0.0,0.0,92,0.00,,,0.00,Wunderground v.1.15,2013-05-31 09:14:00,
2013-05-31 04:20:00,76.4,73.9,29.83,ESE,122,0.0,0.0,92,0.00,,,0.00,Wunderground v.1.15,2013-05-31 09:20:00,
2013-05-31 04:29:00,76.3,73.8,29.83,East,97,1.0,1.0,92,0.00,,,0.00,Wunderground v.1.15,2013-05-31 09:29:00,
2013-05-31 04:39:00,76.2,74.0,29.83,East,96,0.0,1.0,93,0.00,,,0.00,Wunderground v.1.15,2013-05-31 09:39:00,
2013-05-31 04:45:00,76.2,74.0,29.83,NE,35,0.0,1.0,93,0.00,,,0.00,Wunderground v.1.15,2013-05-31 09:45:00,
2013-05-31 04:55:00,76.2,74.0,29.83,ESE,122,0.0,2.0,93,0.00,,,0.00,Wunderground v.1.15,2013-05-31 09:55:00,
2013-05-31 05:04:00,76.2,74.0,29.82,ESE,110,0.0,0.0,93,0.00,,,0.00,Wunderground v.1.15,2013-05-31 10:04:00,
2013-05-31 05:10:00,76.1,73.9,29.83,ENE,60,0.0,0.0,93,0.00,,,0.00,Wunderground v.1.15,2013-05-31 10:10:00,
2013-05-31 05:20:00,76.0,73.8,29.83,ENE,76,0.0,0.0,93,0.00,,,0.00,Wunderground v.1.15,2013-05-31 10:20:00,
2013-05-31 05:30:00,75.9,73.7,29.83,WNW,302,0.0,0.0,93,0.00,,,0.00,Wunderground v.1.15,2013-05-31 10:30:00,
2013-05-31 05:40:00,75.8,73.6,29.83,WNW,291,0.0,1.0,93,0.00,,,0.00,Wunderground v.1.15,2013-05-31 10:40:00,
2013-05-31 05:49:00,75.7,73.8,29.83,East,101,0.0,1.0,94,0.00,,,0.00,Wunderground v.1.15,2013-05-31 10:49:00,
2013-05-31 06:00:00,75.5,73.3,29.83,WSW,257,1.0,1.0,93,0.00,,,0.00,Wunderground v.1.15,2013-05-31 11:00:00,
2013-05-31 06:09:00,75.4,73.2,29.83,WNW,302,1.0,1.0,93,0.00,,,0.00,Wunderground v.1.15,2013-05-31 11:09:00,
2013-05-31 06:20:00,75.2,73.0,29.83,SE,125,0.0,0.0,93,0.00,,,0.00,Wunderground v.1.15,2013-05-31 11:20:00,
2013-05-31 06:29:00,75.0,73.2,29.83,SSE,158,0.0,0.0,94,0.00,,,0.00,Wunderground v.1.15,2013-05-31 11:29:00,
2013-05-31 06:40:00,74.9,73.1,29.83,WSW,241,0.0,0.0,94,0.00,,,0.00,Wunderground v.1.15,2013-05-31 11:40:00,
2013-05-31 06:50:00,74.9,73.4,29.83,West,263,0.0,0.0,95,0.00,,,0.00,Wunderground v.1.15,2013-05-31 11:50:00,
2013-05-31 06:59:00,74.9,73.4,29.84,SE,127,0.0,1.0,95,0.00,,,0.00,Wunderground v.1.15,2013-05-31 11:59:00,
2013-05-31 07:05:00,74.9,73.4,29.84,WSW,258,0.0,1.0,95,0.00,,,0.00,Wunderground v.1.15,2013-05-31 12:05:00,
2013-05-31 07:14:00,75.0,73.5,29.84,East,89,1.0,1.0,95,0.00,,,0.00,Wunderground v.1.15,2013-05-31 12:14:00,
2013-05-31 07:25:00,75.2,73.4,29.84,SSW,212,1.0,1.0,94,0.00,,,0.00,Wunderground v.1.15,2013-05-31 12:25:00,
2013-05-31 07:34:00,75.3,73.5,29.85,West,280,1.0,1.0,94,0.00,,,0.00,Wunderground v.1.15,2013-05-31 12:34:00,
2013-05-31 07:44:00,75.5,73.7,29.85,ENE,76,1.0,1.0,94,0.00,,,0.00,Wunderground v.1.15,2013-05-31 12:44:00,
2013-05-31 07:50:00,75.5,73.7,29.85,SSW,212,1.0,1.0,94,0.00,,,0.00,Wunderground v.1.15,2013-05-31 12:50:00,
2013-05-31 08:00:00,75.7,73.5,29.86,ESE,103,1.0,4.0,93,0.00,,,0.00,Wunderground v.1.15,2013-05-31 13:00:00,
2013-05-31 08:25:00,76.5,74.0,29.87,SE,143,1.0,2.0,92,0.00,,,0.00,Wunderground v.1.15,2013-05-31 13:25:00,
2013-05-31 08:35:00,77.0,74.2,29.87,West,281,1.0,1.0,91,0.00,,,0.00,Wunderground v.1.15,2013-05-31 13:35:00,
2013-05-31 08:44:00,77.6,74.4,29.87,ESE,105,1.0,1.0,90,0.00,,,0.00,Wunderground v.1.15,2013-05-31 13:44:00,
2013-05-31 08:55:00,78.1,74.3,29.87,ENE,71,1.0,1.0,88,0.00,,,0.00,Wunderground v.1.15,2013-05-31 13:55:00,
2013-05-31 09:04:00,78.7,74.5,29.87,SE,134,1.0,2.0,87,0.00,,,0.00,Wunderground v.1.15,2013-05-31 14:04:00,
2013-05-31 09:15:00,78.8,74.3,29.87,West,262,1.0,2.0,86,0.00,,,0.00,Wunderground v.1.15,2013-05-31 14:15:00,
2013-05-31 09:24:00,78.9,74.4,29.87,SE,127,1.0,1.0,86,0.00,,,0.00,Wunderground v.1.15,2013-05-31 14:24:00,
2013-05-31 09:34:00,79.2,74.3,29.87,ESE,103,1.0,2.0,85,0.00,,,0.00,Wunderground v.1.15,2013-05-31 14:34:00,
2013-05-31 09:40:00,79.2,73.9,29.88,South,175,1.0,1.0,84,0.00,,,0.00,Wunderground v.1.15,2013-05-31 14:40:00,
2013-05-31 09:49:00,79.3,74.4,29.88,East,95,1.0,3.0,85,0.00,,,0.00,Wunderground v.1.15,2013-05-31 14:49:00,
2013-05-31 09:59:00,79.7,74.4,29.88,SSW,194,1.0,1.0,84,0.00,,,0.00,Wunderground v.1.15,2013-05-31 14:59:00,
2013-05-31 10:05:00,80.0,75.1,29.88,SW,226,1.0,4.0,85,0.00,,,0.00,Wunderground v.1.15,2013-05-31 15:05:00,
2013-05-31 10:14:00,80.5,74.9,29.87,ENE,65,1.0,1.0,83,0.00,,,0.00,Wunderground v.1.15,2013-05-31 15:14:00,
2013-05-31 10:25:00,81.0,75.0,29.87,East,91,1.0,1.0,82,0.00,,,0.00,Wunderground v.1.15,2013-05-31 15:25:00,
2013-05-31 10:35:00,81.3,74.9,29.87,ESE,105,1.0,1.0,81,0.00,,,0.00,Wunderground v.1.15,2013-05-31 15:35:00,
2013-05-31 10:45:00,81.8,75.4,29.87,East,91,1.0,1.0,81,0.00,,,0.00,Wunderground v.1.15,2013-05-31 15:45:00,
2013-05-31 10:55:00,81.9,75.9,29.87,West,262,1.0,2.0,82,0.00,,,0.00,Wunderground v.1.15,2013-05-31 15:55:00,
2013-05-31 11:04:00,82.3,75.9,29.87,SW,228,1.0,1.0,81,0.00,,,0.00,Wunderground v.1.15,2013-05-31 16:04:00,
2013-05-31 11:10:00,82.3,75.1,29.87,SW,234,1.0,2.0,79,0.00,,,0.00,Wunderground v.1.15,2013-05-31 16:10:00,
2013-05-31 11:20:00,82.6,75.8,29.87,East,79,1.0,1.0,80,0.00,,,0.00,Wunderground v.1.15,2013-05-31 16:20:00,
2013-05-31 11:29:00,82.8,75.6,29.87,SW,220,1.0,1.0,79,0.00,,,0.00,Wunderground v.1.15,2013-05-31 16:29:00,
2013-05-31 11:35:00,82.9,76.1,29.87,WNW,283,1.0,1.0,80,0.00,,,0.00,Wunderground v.1.15,2013-05-31 16:35:00,
2013-05-31 11:44:00,83.0,75.8,29.87,SE,141,1.0,1.0,79,0.00,,,0.00,Wunderground v.1.15,2013-05-31 16:44:00,
2013-05-31 11:55:00,83.2,76.0,29.86,ESE,103,1.0,2.0,79,0.00,,,0.00,Wunderground v.1.15,2013-05-31 16:55:00,
2013-05-31 12:04:00,83.3,75.3,29.86,SE,132,1.0,2.0,77,0.00,,,0.00,Wunderground v.1.15,2013-05-31 17:04:00,
2013-05-31 12:15:00,83.5,75.9,29.86,WSW,238,1.0,2.0,78,0.00,,,0.00,Wunderground v.1.15,2013-05-31 17:15:00,
2013-05-31 12:20:00,83.8,76.2,29.86,West,271,1.0,6.0,78,0.00,,,0.00,Wunderground v.1.15,2013-05-31 17:20:00,
2013-05-31 12:29:00,84.3,76.7,29.86,ESE,107,1.0,1.0,78,0.00,,,0.00,Wunderground v.1.15,2013-05-31 17:29:00,
2013-05-31 12:40:00,84.6,76.2,29.86,NE,48,1.0,1.0,76,0.00,,,0.00,Wunderground v.1.15,2013-05-31 17:40:00,
2013-05-31 12:49:00,85.3,76.5,29.85,SE,145,1.0,2.0,75,0.00,,,0.00,Wunderground v.1.15,2013-05-31 17:49:00,
2013-05-31 12:59:00,85.6,77.2,29.84,ESE,121,2.0,2.0,76,0.00,,,0.00,Wunderground v.1.15,2013-05-31 17:59:00,
2013-05-31 13:05:00,86.5,78.0,29.85,West,262,1.0,2.0,76,0.00,,,0.00,Wunderground v.1.15,2013-05-31 18:05:00,
2013-05-31 13:14:00,87.3,77.2,29.84,ESE,106,1.0,1.0,72,0.00,,,0.00,Wunderground v.1.15,2013-05-31 18:14:00,
2013-05-31 13:25:00,87.3,76.7,29.84,SSW,198,2.0,2.0,71,0.00,,,0.00,Wunderground v.1.15,2013-05-31 18:25:00,
2013-05-31 13:34:00,88.2,77.2,29.83,SSW,197,2.0,2.0,70,0.00,,,0.00,Wunderground v.1.15,2013-05-31 18:34:00,
2013-05-31 13:44:00,88.8,77.7,29.83,WSW,255,2.0,3.0,70,0.00,,,0.00,Wunderground v.1.15,2013-05-31 18:44:00,
2013-05-31 13:50:00,88.9,77.8,29.83,ENE,68,2.0,2.0,70,0.00,,,0.00,Wunderground v.1.15,2013-05-31 18:50:00,
2013-05-31 13:59:00,89.6,78.1,29.82,South,179,2.0,2.0,69,0.00,,,0.00,Wunderground v.1.15,2013-05-31 18:59:00,
2013-05-31 14:09:00,90.1,78.1,29.82,South,184,1.0,1.0,68,0.00,,,0.00,Wunderground v.1.15,2013-05-31 19:09:00,
2013-05-31 14:15:00,90.7,77.8,29.82,South,190,1.0,3.0,66,0.00,,,0.00,Wunderground v.1.15,2013-05-31 19:15:00,
2013-05-31 14:24:00,91.2,78.2,29.81,West,264,2.0,2.0,66,0.00,,,0.00,Wunderground v.1.15,2013-05-31 19:24:00,
2013-05-31 14:35:00,91.9,78.9,29.81,SSE,152,1.0,2.0,66,0.00,,,0.00,Wunderground v.1.15,2013-05-31 19:35:00,
2013-05-31 14:45:00,92.5,78.5,29.80,ESE,110,1.0,2.0,64,0.00,,,0.00,Wunderground v.1.15,2013-05-31 19:45:00,
2013-05-31 14:54:00,92.0,78.1,29.80,East,92,1.0,2.0,64,0.00,,,0.00,Wunderground v.1.15,2013-05-31 19:54:00,
2013-05-31 15:00:00,91.5,77.6,29.80,ESE,108,2.0,3.0,64,0.00,,,0.00,Wunderground v.1.15,2013-05-31 20:00:00,
2013-05-31 15:09:00,91.5,78.5,29.79,East,82,2.0,2.0,66,0.00,,,0.00,Wunderground v.1.15,2013-05-31 20:09:00,
2013-05-31 15:20:00,91.7,78.7,29.79,ESE,105,2.0,2.0,66,0.00,,,0.00,Wunderground v.1.15,2013-05-31 20:20:00,
2013-05-31 15:30:00,92.4,78.0,29.79,West,277,2.0,2.0,63,0.00,,,0.00,Wunderground v.1.15,2013-05-31 20:30:00,
2013-05-31 15:39:00,92.6,77.7,29.78,SSW,210,2.0,2.0,62,0.00,,,0.00,Wunderground v.1.15,2013-05-31 20:39:00,
2013-05-31 15:45:00,92.5,78.1,29.78,SW,225,2.0,3.0,63,0.00,,,0.00,Wunderground v.1.15,2013-05-31 20:45:00,
2013-05-31 15:55:00,92.3,77.9,29.78,WSW,257,1.0,2.0,63,0.00,,,0.00,Wunderground v.1.15,2013-05-31 20:55:00,
2013-05-31 16:05:00,92.6,78.6,29.78,NNE,29,1.0,2.0,64,0.00,,,0.00,Wunderground v.1.15,2013-05-31 21:05:00,
2013-05-31 16:15:00,93.4,78.9,29.77,SE,127,1.0,1.0,63,0.00,,,0.00,Wunderground v.1.15,2013-05-31 21:15:00,
2013-05-31 16:20:00,93.8,78.8,29.77,ENE,58,1.0,1.0,62,0.00,,,0.00,Wunderground v.1.15,2013-05-31 21:20:00,
2013-05-31 16:30:00,94.2,77.7,29.76,ESE,103,2.0,2.0,59,0.00,,,0.00,Wunderground v.1.15,2013-05-31 21:30:00,
2013-05-31 16:39:00,94.5,78.5,29.76,SE,134,1.0,2.0,60,0.00,,,0.00,Wunderground v.1.15,2013-05-31 21:39:00,
2013-05-31 16:50:00,93.9,78.4,29.76,East,97,1.0,1.0,61,0.00,,,0.00,Wunderground v.1.15,2013-05-31 21:50:00,
2013-05-31 16:59:00,94.3,78.3,29.76,ESE,105,1.0,1.0,60,0.00,,,0.00,Wunderground v.1.15,2013-05-31 21:59:00,
2013-05-31 17:10:00,94.4,77.9,29.75,SE,139,1.0,1.0,59,0.00,,,0.00,Wunderground v.1.15,2013-05-31 22:10:00,
2013-05-31 17:19:00,94.6,77.5,29.75,ESE,107,1.0,4.0,58,0.00,,,0.00,Wunderground v.1.15,2013-05-31 22:19:00,
2013-05-31 17:29:00,93.3,77.3,29.75,SSE,150,1.0,2.0,60,0.00,,,0.00,Wunderground v.1.15,2013-05-31 22:29:00,
2013-05-31 17:35:00,93.2,77.7,29.75,WNW,300,1.0,2.0,61,0.00,,,0.00,Wunderground v.1.15,2013-05-31 22:35:00,
2013-05-31 17:44:00,92.4,77.0,29.75,West,274,1.0,1.0,61,0.00,,,0.00,Wunderground v.1.15,2013-05-31 22:44:00,
2013-05-31 17:54:00,92.8,77.9,29.75,East,84,1.0,2.0,62,0.00,,,0.00,Wunderground v.1.15,2013-05-31 22:54:00,
2013-05-31 18:00:00,92.5,76.6,29.74,East,101,1.0,1.0,60,0.00,,,0.00,Wunderground v.1.15,2013-05-31 23:00:00,
2013-05-31 18:09:00,91.5,76.1,29.74,NW,308,1.0,2.0,61,0.00,,,0.00,Wunderground v.1.15,2013-05-31 23:09:00,
2013-05-31 18:15:00,91.8,76.9,29.74,ESE,107,1.0,2.0,62,0.00,,,0.00,Wunderground v.1.15,2013-05-31 23:15:00,
2013-05-31 18:24:00,92.2,76.3,29.74,ESE,116,1.0,1.0,60,0.00,,,0.00,Wunderground v.1.15,2013-05-31 23:24:00,
2013-05-31 18:34:00,92.3,76.4,29.74,SSW,210,2.0,2.0,60,0.00,,,0.00,Wunderground v.1.15,2013-05-31 23:34:00,
2013-05-31 18:40:00,92.5,75.6,29.74,ESE,109,1.0,1.0,58,0.00,,,0.00,Wunderground v.1.15,2013-05-31 23:40:00,
2013-05-31 18:49:00,92.7,75.2,29.74,East,97,1.0,1.0,57,0.00,,,0.00,Wunderground v.1.15,2013-05-31 23:49:00,
2013-05-31 19:00:00,92.2,74.8,29.74,SE,128,1.0,1.0,57,0.00,,,0.00,Wunderground v.1.15,2013-06-01 00:00:00,
2013-05-31 19:09:00,91.4,78.0,29.74,NW,313,2.0,2.0,65,0.00,,,0.00,Wunderground v.1.15,2013-06-01 00:09:00,
2013-05-31 19:19:00,90.4,77.5,29.74,NE,41,2.0,2.0,66,0.00,,,0.00,Wunderground v.1.15,2013-06-01 00:19:00,
2013-05-31 19:25:00,89.9,77.9,29.74,ESE,120,2.0,2.0,68,0.00,,,0.00,Wunderground v.1.15,2013-06-01 00:25:00,
2013-05-31 19:34:00,89.8,77.4,29.74,SE,136,2.0,2.0,67,0.00,,,0.00,Wunderground v.1.15,2013-06-01 00:34:00,
2013-05-31 19:44:00,89.2,77.3,29.74,SSE,155,2.0,3.0,68,0.00,,,0.00,Wunderground v.1.15,2013-06-01 00:44:00,
2013-05-31 19:50:00,88.8,77.3,29.75,WSW,257,2.0,2.0,69,0.00,,,0.00,Wunderground v.1.15,2013-06-01 00:50:00,
2013-05-31 19:59:00,88.2,77.2,29.75,SE,128,2.0,5.0,70,0.00,,,0.00,Wunderground v.1.15,2013-06-01 00:59:00,
2013-05-31 20:10:00,87.0,76.9,29.75,ESE,113,2.0,2.0,72,0.00,,,0.00,Wunderground v.1.15,2013-06-01 01:10:00,
2013-05-31 20:19:00,86.1,76.8,29.75,ENE,67,2.0,2.0,74,0.00,,,0.00,Wunderground v.1.15,2013-06-01 01:19:00,
2013-05-31 20:29:00,85.4,76.6,29.76,ESE,104,1.0,2.0,75,0.00,,,0.00,Wunderground v.1.15,2013-06-01 01:29:00,
2013-05-31 20:35:00,85.1,76.7,29.76,East,89,2.0,2.0,76,0.00,,,0.00,Wunderground v.1.15,2013-06-01 01:35:00,
2013-05-31 20:44:00,84.6,76.6,29.76,SE,124,1.0,1.0,77,0.00,,,0.00,Wunderground v.1.15,2013-06-01 01:44:00,
2013-05-31 20:50:00,84.4,76.8,29.76,East,83,1.0,1.0,78,0.00,,,0.00,Wunderground v.1.15,2013-06-01 01:50:00,
2013-05-31 21:00:00,84.0,76.4,29.76,ESE,113,2.0,2.0,78,0.00,,,0.00,Wunderground v.1.15,2013-06-01 02:00:00,
2013-05-31 21:09:00,83.5,75.9,29.76,East,85,1.0,1.0,78,0.00,,,0.00,Wunderground v.1.15,2013-06-01 02:09:00,
2013-05-31 21:20:00,83.1,75.9,29.76,ESE,113,1.0,1.0,79,0.00,,,0.00,Wunderground v.1.15,2013-06-01 02:20:00,
2013-05-31 21:29:00,82.7,75.9,29.77,SE,136,1.0,3.0,80,0.00,,,0.00,Wunderground v.1.15,2013-06-01 02:29:00,
2013-05-31 21:40:00,82.3,75.9,29.77,ENE,67,1.0,1.0,81,0.00,,,0.00,Wunderground v.1.15,2013-06-01 02:40:00,
2013-05-31 21:50:00,81.8,75.8,29.77,SE,132,1.0,1.0,82,0.00,,,0.00,Wunderground v.1.15,2013-06-01 02:50:00,
2013-05-31 21:59:00,81.4,75.4,29.78,East,89,1.0,1.0,82,0.00,,,0.00,Wunderground v.1.15,2013-06-01 02:59:00,
2013-05-31 22:05:00,81.2,75.5,29.78,SE,129,1.0,1.0,83,0.00,,,0.00,Wunderground v.1.15,2013-06-01 03:05:00,
2013-05-31 22:15:00,80.8,75.5,29.78,East,98,1.0,1.0,84,0.00,,,0.00,Wunderground v.1.15,2013-06-01 03:15:00,
2013-05-31 22:24:00,80.4,75.5,29.78,SSE,150,2.0,2.0,85,0.00,,,0.00,Wunderground v.1.15,2013-06-01 03:24:00,
2013-05-31 22:30:00,80.2,75.3,29.79,East,82,1.0,1.0,85,0.00,,,0.00,Wunderground v.1.15,2013-06-01 03:30:00,
2013-05-31 22:39:00,79.8,74.9,29.79,ENE,68,1.0,1.0,85,0.00,,,0.00,Wunderground v.1.15,2013-06-01 03:39:00,
2013-05-31 22:50:00,79.4,74.8,29.80,East,96,2.0,2.0,86,0.00,,,0.00,Wunderground v.1.15,2013-06-01 03:50:00,
2013-05-31 23:00:00,79.1,74.5,29.79,ESE,123,1.0,1.0,86,0.00,,,0.00,Wunderground v.1.15,2013-06-01 04:00:00,
2013-05-31 23:04:00,78.9,74.7,29.79,East,98,1.0,1.0,87,0.00,,,0.00,Wunderground v.1.15,2013-06-01 04:04:00,
2013-05-31 23:09:00,78.8,74.6,29.80,NNW,344,1.0,1.0,87,0.00,,,0.00,Wunderground v.1.15,2013-06-01 04:09:00,
2013-05-31 23:14:00,78.6,74.7,29.79,ESE,111,1.0,1.0,88,0.00,,,0.00,Wunderground v.1.15,2013-06-01 04:14:00,
2013-05-31 23:20:00,78.5,74.6,29.79,SSE,167,1.0,3.0,88,0.00,,,0.00,Wunderground v.1.15,2013-06-01 04:20:00,
2013-05-31 23:29:00,78.2,74.7,29.79,SE,137,1.0,1.0,89,0.00,,,0.00,Wunderground v.1.15,2013-06-01 04:29:00,
2013-05-31 23:35:00,78.1,74.6,29.79,WSW,246,1.0,3.0,89,0.00,,,0.00,Wunderground v.1.15,2013-06-01 04:35:00,
2013-05-31 23:45:00,77.8,74.6,29.79,East,95,1.0,1.0,90,0.00,,,0.00,Wunderground v.1.15,2013-06-01 04:45:00,
2013-05-31 23:54:00,77.7,74.5,29.79,ENE,76,1.0,1.0,90,0.00,,,0.00,Wunderground v.1.15,2013-06-01 04:54:00,